UAL29 KSFO-WSSS

Flight info

Callsign UAL29
Flight time N/A
Altitude 32000
Route GNNRR3 AMAKR DCT REDWD DCT UNVER DCT 42N130W 46N140W/N0490F340 50N150W 51N160W 50N170W 46N180E/N0495F360 38N170E 33N160E 28N150E/N0488F380 23N140E 19N130E DCT OMDOB/N0484F400 DCT JOM M767 TOMAN KARTO2B
Aircraft B789/H-SDE1E2E3FGHIJ2J3J4J5M1RWXY/LB1D1

Departure

Time 2026-05-04 04:01
Airport San Francisco International Airport (KSFO)

Arrival

Time N/A
Airport Singapore Changi Airport (WSSS)
Time Latitude Longitude Altitude Speed Heading
2026-05-04 03:42 37.61821 -122.39018 25 ft 0 kts 209°
2026-05-04 03:52 37.61823 -122.39017 27 ft 2 kts 209°
2026-05-04 03:52 37.61855 -122.38993 27 ft 8 kts 200°
2026-05-04 03:53 37.61918 -122.38975 26 ft 11 kts 234°
2026-05-04 03:53 37.61926 -122.38923 26 ft 0 kts 299°
2026-05-04 03:53 37.61941 -122.38965 26 ft 11 kts 294°
2026-05-04 03:53 37.61989 -122.39091 23 ft 16 kts 297°
2026-05-04 03:54 37.62073 -122.39195 25 ft 18 kts
2026-05-04 03:54 37.62211 -122.39107 26 ft 28 kts 46°
2026-05-04 03:54 37.62255 -122.38891 24 ft 24 kts 114°
2026-05-04 03:54 37.62165 -122.38677 27 ft 30 kts 118°
2026-05-04 03:55 37.62071 -122.38453 30 ft 27 kts 117°
2026-05-04 03:55 37.61988 -122.38256 28 ft 25 kts 118°
2026-05-04 03:55 37.61906 -122.38060 27 ft 25 kts 117°
2026-05-04 03:55 37.61829 -122.37863 28 ft 26 kts 113°
2026-05-04 03:56 37.61764 -122.37654 29 ft 25 kts 111°
2026-05-04 03:56 37.61699 -122.37460 28 ft 24 kts 117°
2026-05-04 03:56 37.61624 -122.37285 28 ft 22 kts 118°
2026-05-04 03:56 37.61552 -122.37112 27 ft 25 kts 118°
2026-05-04 03:57 37.61453 -122.36908 26 ft 27 kts 130°
2026-05-04 03:57 37.61340 -122.36718 26 ft 27 kts 119°
2026-05-04 03:57 37.61255 -122.36514 24 ft 26 kts 118°
2026-05-04 03:57 37.61174 -122.36324 26 ft 23 kts 118°
2026-05-04 03:58 37.61054 -122.35990 25 ft 18 kts 87°
2026-05-04 03:58 37.61087 -122.35916 26 ft 0 kts 33°
2026-05-04 03:58 37.61119 -122.35894 27 ft 10 kts 25°
2026-05-04 03:59 37.61203 -122.35926 26 ft 16 kts 307°
2026-05-04 03:59 37.61216 -122.35952 26 ft 1 kts 300°
2026-05-04 03:59 37.61216 -122.35953 26 ft 0 kts 300°
2026-05-04 03:59 37.61221 -122.35964 27 ft 5 kts 298°
2026-05-04 04:00 37.61283 -122.36110 23 ft 42 kts 298°
2026-05-04 04:00 37.61514 -122.36659 28 ft 97 kts 298°
2026-05-04 04:00 37.61900 -122.37573 29 ft 143 kts 298°
2026-05-04 04:00 37.62430 -122.38830 40 ft 179 kts 300°
2026-05-04 04:01 37.63008 -122.40107 782 ft 158 kts 300°
2026-05-04 04:01 37.63611 -122.41326 1175 ft 167 kts 299°
2026-05-04 04:01 37.64176 -122.42622 1675 ft 170 kts 296°
2026-05-04 04:01 37.64725 -122.43944 2112 ft 171 kts 294°
2026-05-04 04:02 37.65271 -122.45322 2363 ft 187 kts 296°
2026-05-04 04:02 37.65941 -122.46845 2514 ft 213 kts 297°
2026-05-04 04:02 37.66693 -122.48554 2800 ft 233 kts 297°
2026-05-04 04:02 37.67495 -122.50360 3328 ft 248 kts 300°
2026-05-04 04:03 37.68588 -122.52120 3901 ft 258 kts 306°
2026-05-04 04:03 37.69646 -122.53965 4696 ft 265 kts 304°
2026-05-04 04:03 37.70730 -122.55875 5367 ft 274 kts 305°
2026-05-04 04:03 37.71866 -122.57803 6112 ft 280 kts 306°
2026-05-04 04:04 37.73041 -122.59778 6840 ft 286 kts 306°
2026-05-04 04:04 37.74225 -122.61788 7626 ft 289 kts 306°
2026-05-04 04:04 37.75416 -122.63818 8458 ft 290 kts 306°
2026-05-04 04:04 37.76621 -122.65871 9188 ft 295 kts 306°
2026-05-04 04:05 37.77843 -122.67951 9941 ft 299 kts 307°
2026-05-04 04:05 37.79081 -122.70058 10335 ft 316 kts 307°
2026-05-04 04:05 37.80435 -122.72366 10429 ft 343 kts 307°
2026-05-04 04:05 37.81891 -122.74820 10938 ft 353 kts 310°
2026-05-04 04:06 37.83733 -122.76808 11692 ft 354 kts 329°
2026-05-04 04:06 37.85804 -122.78507 12367 ft 359 kts 328°
2026-05-04 04:06 37.87890 -122.80243 13111 ft 364 kts 328°
2026-05-04 04:06 37.90003 -122.81999 13827 ft 368 kts 328°
2026-05-04 04:07 37.92141 -122.83771 14491 ft 371 kts 328°
2026-05-04 04:07 37.94294 -122.85559 15182 ft 374 kts 328°
2026-05-04 04:07 37.96456 -122.87357 15834 ft 377 kts 328°
2026-05-04 04:07 37.98643 -122.89177 16515 ft 380 kts 328°
2026-05-04 04:08 38.00824 -122.90994 17171 ft 382 kts 328°
2026-05-04 04:08 38.03041 -122.92840 17815 ft 385 kts 328°
2026-05-04 04:08 38.05290 -122.94716 18444 ft 388 kts 328°
2026-05-04 04:08 38.07557 -122.96608 18931 ft 393 kts 329°
2026-05-04 04:09 38.09857 -122.98528 19426 ft 397 kts 329°
2026-05-04 04:09 38.12181 -123.00470 19931 ft 402 kts 329°
2026-05-04 04:09 38.14495 -123.02406 20412 ft 405 kts 329°
2026-05-04 04:09 38.16859 -123.04385 20898 ft 409 kts 330°
2026-05-04 04:10 38.19254 -123.06391 21377 ft 413 kts 330°
2026-05-04 04:10 38.21667 -123.08414 21846 ft 417 kts 330°
2026-05-04 04:10 38.24101 -123.10457 22272 ft 422 kts 331°
2026-05-04 04:10 38.26561 -123.12522 22732 ft 425 kts 331°
2026-05-04 04:11 38.29044 -123.14608 23184 ft 429 kts 331°
2026-05-04 04:11 38.31541 -123.16709 23650 ft 432 kts 331°
2026-05-04 04:11 38.34057 -123.18828 24069 ft 434 kts 332°
2026-05-04 04:11 38.36578 -123.20953 24451 ft 436 kts 332°
2026-05-04 04:12 38.39124 -123.23102 24821 ft 438 kts 333°